Location: Sofia
(42.6977°N, 23.3219°E)
Time: 21:10:26
(UTC+03:00)

Hubble Space Telescope - Visible Passes

Search period start: 21 September 2023 00:00
Search period end: 01 October 2023 00:00
Orbit: 522 x 525 km, 28.5° (Epoch: 20 September)

Date Brightness Start Highest point End Pass type
(mag) Time Alt. Az. Time Alt. Az. Time Alt. Az.
21 Sep 3.2 06:10:36 10° S 06:11:14 10° S 06:11:52 10° SSE visible
22 Sep 3.1 05:54:52 10° S 05:55:43 11° S 05:56:35 10° SSE visible
23 Sep 3.1 05:39:58 11° S 05:40:12 11° S 05:41:08 10° SSE visible
24 Sep 3.3 05:25:30 10° S 05:25:30 10° S 05:25:34 10° SSE visible
